Regional Weather Roundup
Issued by NWS Grand Forks, ND

Home | Current Version | Previous Version | Graphics & Text | Print | Product List | Glossary On
Versions: 1 2 3 4 5 6 7 8 9 10 11 12 13 14 15 16 17 18 19 20 21 22 23 24 25 26 27 28 29 30 31 32 33 34 35 36 37 38 39 40 41 42 43 44 45 46 47 48 49 50
000
ASUS43 KFGF 231210
RWRFGF
PRAIRIE TO PINES  WEATHER ROUNDUP
NATIONAL WEATHER SERVICE EASTERN NORTH DAKOTA/GRAND FORKS ND
600 AM CST THU FEB 23 2017

 **SATELLITE DATA USED TO AUGMENT SKY COVER AT AUTOMATED STATIONS**
 *****  WEATHER ACROSS EASTERN NORTH DAKOTA  *****

CITY           SKY/WX    TMP DP  RH WIND       PRES   REMARKS
GRAND FORKS    CLOUDY    29  20  69 N5        30.05R WCI  24
6HR MIN TEMP:  27; 6HR MAX TEMP:  29;

GRAND FRKS AFB CLOUDY    28  23  82 N6        30.04R WCI  21
DEVILS LAKE    CLOUDY    25  23  92 S5        30.03R WCI  19
6HR MIN TEMP:  22; 6HR MAX TEMP:  27;

FARGO          CLOUDY    29  26  89 N10       30.02R WCI  20
WAHPETON ARPT  FAIR      28  27  93 N8        29.99F WCI  20
$$

 ***** WEATHER ACROSS CENTRAL AND WESTERN NORTH DAKOTA  *****

CITY           SKY/WX    TMP DP  RH WIND       PRES   REMARKS
BISMARCK       MOCLDY    28  25  88 NW5       30.01R WCI  23
6HR MIN TEMP:  22; 6HR MAX TEMP:  31;

MINOT          LGT SNOW  32  28  85 N14       30.00R FOG     WCI  22
6HR MIN TEMP:  31; 6HR MAX TEMP:  33; 6HR PCP: TRACE;

JAMESTOWN      FAIR      24  22  91 N9        29.98R WCI  14
6HR MIN TEMP:  22; 6HR MAX TEMP:  27;

MINOT AFB      MOCLDY    28  25  89 N16       30.01R WCI  16
GARRISON         N/A     28  26  92 NW6       30.00R WCI  22
WILLISTON      CLOUDY    29  26  89 SW5       30.02S WCI  24
6HR MIN TEMP:  25; 6HR MAX TEMP:  29;

DICKINSON      CLOUDY    24  22  91 NW5       29.96S FOG     WCI  18
6HR MIN TEMP:  23; 6HR MAX TEMP:  25; 6HR PCP: TRACE;

HETTINGER      CLOUDY    26  24  92 NE8       29.95F WCI  18
6HR MIN TEMP:  26; 6HR MAX TEMP:  28;

$$

 *****  OTHER AIRPORT OBSERVATIONS IN OUR AREA  *****

CITY           SKY/WX    TMP DP  RH WIND       PRES   REMARKS
WALHALLA       NOT AVBL
GRAFTON AIRPOR CLOUDY    27  25  93 NW7       30.06R WCI  19
VALLEY CITY AR CLOUDY    28  28 100 NE8       30.01S WCI  20
CANDO          NOT AVBL
CAVALIER APRT    N/A     25  21  86 NW10      30.06R WCI  15
GWINNER        CLOUDY    28  27  93 N7        29.99S WCI  21
SHEYENNE NWR     N/A     25  23  92 N2        29.95S
ROLLA          CLOUDY    27  27 100 N10       30.02R WCI  17
 ***** THE ABOVE OBSERVATIONS ARE NON NWS ARE NOT QUALITY
       CONTROLLED AND MAY MIS-REPORT RAIN FOR SNOW...
$$

  *****  WEATHER ACROSS NORTHERN MINNESOTA  *****

CITY           SKY/WX    TMP DP  RH WIND       PRES   REMARKS
FLAG ISLAND    CLOUDY    19  10  68 N21       29.97R WCI   3
WARROAD        CLOUDY    21  14  73 N12       29.98R WCI   9
ROSEAU         CLOUDY    25  18  74 N9        29.99R WCI  15
HALLOCK        CLOUDY    27  21  80 N5        30.04R WCI  21
THF RVR FALLS  CLOUDY    24  19  81 NW5       30.03  WCI  18
6HR MIN TEMP:  22; 6HR MAX TEMP:  26;

BAUDETTE       FAIR      20  11  68 NW13      29.95R WCI   7
6HR MIN TEMP:  20; 6HR MAX TEMP:  26;

WASKISH        CLOUDY    25  18  74 N7        29.97R WCI  17
CROOKSTON      CLOUDY    27  19  74 N6        30.05R WCI  20
GREENBUSH NDAW   N/A     25  19  80 N5          N/A  WCI  19
$$
  *****  WEATHER ACROSS CENTRAL AND WEST MINNESOTA  *****

CITY           SKY/WX    TMP DP  RH WIND       PRES   REMARKS
FOSSTON        MOCLDY    21  19  93 N8        30.01R WCI  12
BEMIDJI        CLOUDY    24  18  80 N6        29.97R WCI  17
PARK RAPIDS    CLOUDY    25  18  74 N8        29.96R WCI  16
6HR MIN TEMP:  21; 6HR MAX TEMP:  27;

ELBOW LAKE     FAIR      27  25  93 N10       29.95F WCI  17
WADENA         MOCLDY    25  21  86 N6        29.95S WCI  18
DETROIT LAKES  FAIR      25  23  93 CALM      29.99R
MOORHEAD       CLOUDY    28  25  86 N9        30.02S WCI  20
FERGUS FALLS   FAIR      27  23  86 N7        30.02R WCI  19
MORRIS MN      FAIR      28  27  93 N12       29.92F WCI  18
STAPLES        CLOUDY    25  23  93 NW7       29.95S WCI  17
$$
  *****  WEATHER ELSEWHERE ACROSS MINNESOTA  *****

CITY           SKY/WX    TMP DP  RH WIND       PRES   REMARKS
DULUTH         CLOUDY    26  23  88 NW7       29.90R WCI  18
6HR MIN TEMP:  24; 6HR MAX TEMP:  33; 6HR PCP: TRACE;

INTRNTL FALLS  CLOUDY    25  17  72 N12       29.91R WCI  14
6HR MIN TEMP:  24; 6HR MAX TEMP:  26;

ELY            CLOUDY    25  21  86 CALM      29.86R
CLOQUET        FAIR      23  21  93 NW8       29.91R WCI  14
WHEATON        FAIR      27  25  93 NW9       29.98F WCI  17
BRAINERD       FAIR      23  19  85 N8        29.94R WCI  14
6HR MIN TEMP:  23; 6HR MAX TEMP:  31;

HIBBING        CLOUDY    22  20  92 N10       29.90R WCI  11
6HR MIN TEMP:  21; 6HR MAX TEMP:  28;

ALEXANDRIA     MOCLDY    27  24  89 N13       29.93S WCI  16
6HR MIN TEMP:  25; 6HR MAX TEMP:  31;

SAINT CLOUD    FAIR      28  24  85 N12       29.90F WCI  18
6HR MIN TEMP:  28; 6HR MAX TEMP:  33;

MINNEAPOLIS    CLOUDY    33  25  72 N10       29.90R WCI  25
6HR MIN TEMP:  33; 6HR MAX TEMP:  38;

$$

  *****  WEATHER ACROSS SOUTH DAKOTA  *****

CITY           SKY/WX    TMP DP  RH WIND       PRES   REMARKS
SIOUX FALLS    CLOUDY    32  28  85 NE15G23   29.87R WCI  22
6HR MIN TEMP:  31; 6HR MAX TEMP:  35;

BROOKINGS      FAIR      29  25  85 NE13      29.88S WCI  19
WATERTOWN      FAIR      26  23  88 NE13      29.89F WCI  15
6HR MIN TEMP:  25; 6HR MAX TEMP:  29;

HURON          FAIR      28  25  88 N14       29.92S WCI  17
6HR MIN TEMP:  28; 6HR MAX TEMP:  32;

SISSETON         N/A     27  25  92 N14       29.95F WCI  16
ABERDEEN       FAIR      26  22  84 N10       29.97F WCI  16
6HR MIN TEMP:  24; 6HR MAX TEMP:  29;

MITCHELL       CLOUDY    30  27  88 N14       29.91R WCI  19
PIERRE         FAIR      27  23  85 N8        29.93F WCI  19
6HR MIN TEMP:  27; 6HR MAX TEMP:  32;

MOBRIDGE       FAIR      27  23  85 N7        29.94S WCI  19
RAPID CITY     CLOUDY    28  26  92 NE14      29.86S FOG     WCI  17
6HR MIN TEMP:  28; 6HR MAX TEMP:  31; 6HR PCP:  0.01;

$$

  *****  SOME WEATHER IN NEARBY STATES *****

CITY           SKY/WX    TMP DP  RH WIND       PRES   REMARKS
GLASGOW MT     CLOUDY    25  23  92 CALM      30.01R
6HR MIN TEMP:  23; 6HR MAX TEMP:  27;

GREAT FALLS MT FLURRIES  27  25  92 N12       29.93S WCI  17
6HR MIN TEMP:  27; 6HR MAX TEMP:  30; 6HR PCP:  0.03;

CHEYENNE WY    LGT SNOW  27  25  92 E12       29.61F VSB 1   WCI  17
6HR MIN TEMP:  27; 6HR MAX TEMP:  30; 6HR PCP:  0.11;

SCOTTSBLUFF NE LGT SNOW  29  26  89 E9        29.73S VSB 1   WCI  20
6HR MIN TEMP:  29; 6HR MAX TEMP:  36; 6HR PCP:  0.07;

OMAHA NE       CLOUDY    38  33  82 N15       29.81R
6HR MIN TEMP:  37; 6HR MAX TEMP:  45;

DES MOINES IA  CLOUDY    40  36  86 NE16      29.80F
6HR MIN TEMP:  40; 6HR MAX TEMP:  49;

DAVENPORT IA   CLOUDY    43  40  89 N9        29.77R
6HR MIN TEMP:  42; 6HR MAX TEMP:  48;

CHICAGO IL     FAIR      49  42  77 NW7       29.72R
6HR MIN TEMP:  48; 6HR MAX TEMP:  59;

EAU CLAIRE WI  CLOUDY    36  30  79 N7        29.84R
6HR MIN TEMP:  36; 6HR MAX TEMP:  41;

LA CROSSE WI   CLOUDY    41  32  70 N10       29.81S
6HR MIN TEMP:  41; 6HR MAX TEMP:  48;

$$

  *****  SOME NATIONAL WEATHER *****

CITY           SKY/WX    TMP DP  RH WIND       PRES   REMARKS
LA GUARDIA NY  FAIR      44  40  85 CALM      29.89S
6HR MIN TEMP:  42; 6HR MAX TEMP:  48;

RALEIGH NC     MOCLDY    52  51  97 CALM      29.95R
6HR MIN TEMP:  50; 6HR MAX TEMP:  57;

ATLANTA GA     FAIR      56  54  93 NE8       29.89R
6HR MIN TEMP:  55; 6HR MAX TEMP:  59;

NEW ORLEANS LA FAIR      57  56  96 CALM      29.80R
6HR MIN TEMP:  56; 6HR MAX TEMP:  60;

OKLAHOMA CITY  MOCLDY    52  46  80 S9        29.56F
6HR MIN TEMP:  52; 6HR MAX TEMP:  56;

ALBUQUERQUE NM FAIR      46  28  49 S12       29.68S
6HR MIN TEMP:  44; 6HR MAX TEMP:  49;

SALT LAKE CITY CLOUDY    29  27  92 SE6       29.70R WCI  23
6HR MIN TEMP:  28; 6HR MAX TEMP:  31; 6HR PCP:  0.08;

LOS ANGELES CA FAIR      51  30  44 N9        30.04S
6HR MIN TEMP:  51; 6HR MAX TEMP:  56;

BOISE ID       CLOUDY    32  24  72 NW22G29   29.81S WCI  19
6HR MIN TEMP:  31; 6HR M



USA.gov is the U.S. government's official web portal to all federal, state and local government web resources and services.